CW3683 Weather Reports


time (UTC)temp
C
wind
direction
speed
KPH
gust
KPH
rain 1hr
cm
rain 24hr
cm
rain mn
cm
humidity
%
barometer
mb
20260504002016 26 45 3.2 14.5 0.00 0.00 0.00 46 1009.5
20260504001017 26 45 1.6 6.4 0.00 0.00 0.00 46 1009.5
20260504000056 27 45 1.6 9.7 0.00 0.00 0.00 45 1009.6
20260503235016 26 0.0 3.2 0.00 0.00 0.00 47 1009.8
20260503234017 26 45 1.6 9.7 0.00 0.00 0.00 46 1009.8
20260503233016 26 68 1.6 9.7 0.00 0.00 0.00 45 1009.9
20260503232016 26 45 1.6 8.0 0.00 0.00 0.00 47 1010.0
20260503231036 26 45 3.2 8.0 0.00 0.00 0.00 47 1010.3
20260503230016 25 45 3.2 8.0 0.00 0.00 0.00 47 1010.4
20260503225016 25 45 6.4 14.5 0.00 0.00 0.00 49 1010.5
20260503224036 25 45 4.8 9.7 0.00 0.00 0.00 50 1010.8
20260503223036 25 68 1.6 8.0 0.00 0.00 0.00 50 1010.9
20260503222016 25 45 4.8 17.7 0.00 0.00 0.00 49 1011.0
20260503221056 25 68 3.2 8.0 0.00 0.00 0.00 49 1011.2
20260503220016 25 45 4.8 11.3 0.00 0.00 0.00 49 1011.2
20260503215016 26 45 4.8 14.5 0.00 0.00 0.00 48 1011.3
20260503214016 26 45 3.2 9.7 0.00 0.00 0.00 47 1011.3
20260503213016 26 45 4.8 12.9 0.00 0.00 0.00 47 1011.4
20260503212016 26 45 1.6 4.8 0.00 0.00 0.00 46 1011.5
20260503211016 26 45 1.6 6.4 0.00 0.00 0.00 49 1011.5
20260503210016 25 68 1.6 6.4 0.00 0.00 0.00 49 1011.7
20260503205016 25 45 1.6 6.4 0.00 0.00 0.00 50 1011.7
20260503204016 25 45 1.6 11.3 0.00 0.00 0.00 49 1011.8
20260503203016 25 45 1.6 4.8 0.00 0.00 0.00 48 1012.0
20260503202016 25 90 1.6 9.7 0.00 0.00 0.00 47 1011.9
20260503201016 24 45 3.2 9.7 0.00 0.00 0.00 49 1012.2
20260503200016 24 45 1.6 9.7 0.00 0.00 0.00 52 1012.3
20260503195016 23 68 4.8 14.5 0.00 0.00 0.00 51 1012.5
20260503194016 24 68 1.6 6.4 0.00 0.00 0.00 52 1012.7
20260503193016 23 45 3.2 9.7 0.00 0.00 0.00 52 1012.7
20260503192016 23 45 1.6 6.4 0.00 0.00 0.00 56 1012.8
20260503191016 22 45 4.8 12.9 0.00 0.00 0.00 55 1012.9
20260503190016 22 45 3.2 12.9 0.00 0.00 0.00 54 1013.0
20260503185036 22 45 1.6 9.7 0.00 0.00 0.00 55 1013.1
20260503184016 22 45 3.2 12.9 0.00 0.00 0.00 55 1013.2
20260503183015 22 68 3.2 9.7 0.00 0.00 0.00 57 1013.3
20260503182036 21 45 4.8 11.3 0.00 0.00 0.00 58 1013.3
20260503181016 21 45 4.8 11.3 0.00 0.00 0.00 57 1013.3
20260503180016 21 45 4.8 12.9 0.00 0.00 0.00 56 1013.3
20260503175015 21 68 3.2 9.7 0.00 0.00 0.00 58 1013.3
20260503174015 21 45 3.2 9.7 0.00 0.00 0.00 60 1013.4
20260503173016 21 45 3.2 8.0 0.00 0.00 0.00 59 1013.5
20260503172036 21 0.0 6.4 0.00 0.00 0.00 61 1013.4
20260503171016 20 23 1.6 6.4 0.00 0.00 0.00 63 1013.6
20260503131035 12 0.0 1.6 0.00 0.00 0.00 81 1013.5
20260503081016 14 0.0 0.0 0.00 0.00 0.00 70 1014.0
20260503072016 15 0.0 0.0 0.00 0.05 0.00 66 1013.8
20260503071016 16 0.0 1.6 0.00 0.05 0.00 65 1013.8
20260503070117 16 0.0 1.6 0.00 0.05 0.05 64 1013.7
20260503055015 16 0.0 0.0 0.00 0.05 0.05 62 1013.8
20260503054015 17 0.0 1.6 0.00 0.05 0.05 62 1013.8
20260503053035 17 0.0 1.6 0.00 0.05 0.05 61 1013.7
20260503052015 17 0.0 1.6 0.00 0.05 0.05 61 1013.9
20260503051015 17 0.0 3.2 0.00 0.05 0.05 61 1013.8
20260503050015 17 0.0 3.2 0.00 0.05 0.05 62 1013.8
20260503045015 17 0.0 0.0 0.00 0.05 0.05 62 1013.7
20260503044035 17 0.0 0.0 0.00 0.05 0.05 61 1013.6
20260503043015 17 0.0 1.6 0.00 0.05 0.05 59 1013.6
20260503042015 18 0.0 4.8 0.00 0.05 0.05 58 1013.4
20260503041015 18 0.0 4.8 0.00 0.05 0.05 59 1013.3
20260503040015 18 68 1.6 4.8 0.00 0.05 0.05 59 1013.2
20260503035015 18 0.0 3.2 0.00 0.05 0.05 60 1013.1
20260503034015 18 68 1.6 8.0 0.00 0.05 0.05 61 1013.0
20260503033035 18 0.0 1.6 0.00 0.05 0.05 63 1012.9
20260503032015 18 0.0 1.6 0.00 0.05 0.05 62 1012.7
20260503031015 18 0.0 0.0 0.00 0.05 0.05 61 1012.7
20260503030017 19 0.0 1.6 0.00 0.05 0.05 60 1012.5
20260503025017 20 45 1.6 4.8 0.00 0.05 0.05 60 1012.5
20260503024017 20 0.0 6.4 0.00 0.05 0.05 60 1012.5
20260503023017 20 45 3.2 11.3 0.00 0.05 0.05 59 1012.6
20260503022017 20 45 1.6 6.4 0.00 0.05 0.05 59 1012.5
20260503021016 21 45 3.2 11.3 0.00 0.05 0.05 60 1012.3
20260503020017 21 45 1.6 8.0 0.00 0.05 0.05 60 1012.4
20260503015017 21 68 3.2 8.0 0.00 0.05 0.05 60 1012.5
20260503014016 21 45 6.4 16.1 0.00 0.05 0.05 60 1012.5
20260503013017 21 45 3.2 11.3 0.00 0.05 0.05 60 1012.6
20260503012016 21 45 3.2 8.0 0.00 0.05 0.05 60 1012.6
20260503011017 21 45 1.6 8.0 0.00 0.05 0.05 59 1012.6
20260503010017 22 45 1.6 11.3 0.00 0.05 0.05 59 1012.6
20260503005016 22 45 3.2 9.7 0.00 0.05 0.05 59 1012.7
20260503004037 22 45 4.8 12.9 0.00 0.05 0.05 59 1012.9
20260503003017 22 45 4.8 17.7 0.00 0.05 0.05 58 1012.8